User: anonymous   Login
Location: Prairie View Elementary School
(39.8322°N, 99.5698°W)
Time: 12:47:34
(UTC+00:00)
Language:

Cosmos 1900 - Orbit

View from above orbital plane
View from above orbital plane
View from above satellite
View from above satellite

Ground track
Ground track

The orbit data is extracted from the following two-line orbital elements,

1 18665U 87101A   20052.86679847 -.00000082 +00000-0 +48249-5 0  9990
2 18665 066.0862 345.8898 0026545 079.2086 281.2005 14.54475938712867
Epoch (UTC): 21 February 2020 20:48:11
Eccentricity: 0.0026545
inclination: 66.0862°
perigee height: 692 km
apogee height: 730 km
right ascension of ascending node: 345.8898°
argument of perigee: 79.2086°
revolutions per day: 14.54475938
mean anomaly at epoch: 281.2005°
orbit number at epoch: 71286

The dashed part of the orbit path shows where the satellite is in the earth's shadow,  

DLR